Location: Aurora Center
(43.5271°N, 98.5894°W)
Time: 09:12:17
(UTC-05:00)

ACS3 Solar Sail - Pass Details

Date: 23 June 2024
Orbit: 992 x 1023 km, 97.4° (Epoch: 11 July)

Event Time Altitude Azimuth Distance (km) Brightness Sun altitude
Exits shadow 23:51:49 15° 204° (SSW) 2,394 6.5 -18.9°
Maximum altitude 23:56:25 38° 265° (W) 1,483 5.9 -19.2°
Drops below altitude 10° 00:02:09 10° 333° (NNW) 2,765 8.4 -19.6°
Sets 00:04:51 0° 341° (NNW) 3,718 9.5 -19.8°
